Temperature
24 24 24 23 23 22 22 21 21 20 20 20 19 19 19 19 19 19 19 18 18 18 18 18 18 18 18 18 18 18 18 18 18 18 18 18 18 18 18 18 17 17 17
24 24 24 23 23 22 22 21 21 21 20 20 20 20 19 19 19 19 19 19 18 18 18 18 18 18 18 18 18 18 18 18 18 18 17 17 17 18 18 17 17 17 17
24 24 24 23 23 22 22 22 21 21 20 20 20 19 19 19 19 19 19 19 18 18 18 18 18 18 18 18 18 18 18 18 18 18 17 17 17 17 17 17 17 17 17
25 24 24 23 23 23 22 22 21 21 21 20 20 19 19 19 19 19 19 19 18 18 18 18 18 18 18 18 18 18 18 18 18 18 17 17 17 17 17 17 17 17 17
25 25 24 24 24 23 22 22 21 21 21 20 20 19 19 19 19 19 19 19 19 18 18 18 18 18 18 18 18 18 18 18 18 17 17 17 17 17 17 17 17 17 17
25 25 24 24 23 23 22 22 22 21 21 20 20 20 19 19 19 19 19 19 19 19 19 18 18 18 18 18 18 18 18 18 17 17 17 17 17 17 17 17 17 17 17
25 25 24 24 24 23 23 22 22 21 21 21 20 20 20 19 19 19 19 19 19 19 19 18 18 18 18 18 18 18 17 17 17 17 17 17 17 17 17 17 17 16 16
26 25 25 24 24 23 23 22 22 22 21 21 21 20 20 20 19 19 19 19 19 19 19 18 18 18 18 18 18 18 17 17 17 17 17 17 17 17 17 17 17 16 16
26 25 25 25 24 24 23 23 22 22 21 21 21 20 20 20 20 19 19 19 19 19 19 18 18 18 18 18 18 18 17 17 17 17 17 17 17 17 17 17 17 16 16
26 25 25 25 24 24 23 23 22 22 22 21 21 21 20 20 20 20 19 19 19 19 19 19 18 18 18 18 18 18 17 17 17 17 17 17 17 17 17 16 16 16 16
26 25 25 25 24 24 23 23 23 22 22 21 21 21 21 20 20 20 19 19 19 19 18 18 18 18 18 18 17 17 17 17 17 17 17 17 17 16 16 16 16 16 16
26 26 25 25 24 24 23 23 23 22 22 22 21 21 21 20 20 20 19 19 19 19 18 18 18 18 18 17 17 17 17 17 17 17 17 17 16 16 16 16 16 16 15
26 25 25 24 24 24 23 23 23 23 22 22 21 21 21 20 20 20 19 19 19 19 18 18 18 18 18 17 17 17 17 17 17 17 16 16 16 16 16 16 15 15 15
25 25 25 24 24 24 24 23 23 23 22 22 21 21 21 20 20 20 19 19 19 19 18 18 18 18 18 17 17 17 17 17 17 16 16 16 16 16 16 15 15 15 15
25 25 24 24 24 24 24 23 23 23 22 22 21 21 21 20 20 20 19 19 19 19 18 18 18 18 17 17 17 17 17 17 16 16 16 16 16 16 15 15 15 15 14
24 24 24 24 24 24 24 23 23 22 22 22 21 21 21 20 20 20 19 19 19 18 18 18 18 18 17 17 17 17 17 16 16 16 16 15 15 15 15 15 15 14 14
24 24 24 24 24 23 23 23 23 23 22 22 21 21 20 20 20 19 19 19 19 18 18 18 18 17 17 17 17 17 16 16 16 16 15 15 15 15 15 15 14 14 14
24 24 23 23 23 23 23 23 22 22 22 22 21 21 20 20 20 19 19 19 18 18 18 18 17 17 17 17 16 16 16 16 16 15 15 15 15 15 15 14 14 14 14
23 23 23 23 23 23 22 22 22 22 21 21 21 21 20 20 19 19 19 19 18 18 18 17 17 17 17 17 16 16 16 16 15 15 15 15 14 14 14 14 14 14 13
23 22 22 23 23 22 22 22 21 21 21 21 20 20 20 19 19 19 18 18 18 18 17 17 17 17 16 16 16 16 15 15 15 15 14 14 14 14 14 13 13 13 13
22 22 22 22 21 21 21 21 21 21 21 20 20 20 19 19 19 18 18 18 17 17 17 16 16 16 16 16 15 15 15 15 15 14 14 14 14 13 13 13 13 13 12
20 21 21 21 21 21 21 21 20 20 20 20 19 19 19 18 18 18 18 17 17 17 16 16 16 16 15 15 15 15 15 14 14 14 14 13 13 13 13 13 12 12 12
20 20 20 20 20 20 20 20 19 19 19 19 19 18 18 18 18 17 17 17 16 16 16 16 16 15 15 15 14 14 14 14 14 13 13 13 13 12 12 12 12 12 12
19 19 19 19 19 19 19 19 18 18 18 18 18 18 18 17 17 17 17 16 16 16 16 16 16 15 15 14 14 14 14 14 13 13 13 12 12 12 12 12 11 11 11
18 18 18 18 18 18 18 18 18 18 18 17 17 17 17 17 16 16 16 16 16 15 15 15 15 15 14 14 14 14 13 13 13 12 12 12 12 12 11 11 11 11 11
17 17 18 17 17 17 17 17 17 17 17 17 17 16 16 16 16 16 15 15 15 15 15 15 14 14 14 14 13 13 13 13 12 12 12 12 11 11 11 11 11 10 10
Wind_Speed
11 12 13 13 12 10 10 10 10 8 6 4 3 3 3 3 3 4 7 8 8 7 6 3 3 3 3 4 3 3 3 2 2 1 2 2 1 1 2 3 3 5 7
11 12 12 12 12 12 11 10 10 9 8 5 4 3 3 3 3 3 4 7 7 7 6 4 4 4 3 3 3 3 2 2 2 3 1 1 3 2 1 1 3 4 4
17 15 14 12 12 12 12 12 10 9 8 7 4 3 2 1 1 2 3 4 6 7 6 6 4 4 4 4 4 4 4 3 2 3 4 3 3 2 2 1 1 2 2
14 14 14 14 14 13 12 10 10 9 8 8 6 6 5 4 4 3 3 3 5 6 6 6 5 4 4 4 4 4 4 4 3 2 3 3 4 3 1 2 1 1 1
16 16 16 15 14 12 11 10 10 9 8 8 8 7 5 4 2 2 3 3 3 4 5 5 5 4 4 4 4 3 4 4 4 3 2 2 2 3 3 2 2 1 1
15 14 13 12 10 11 11 10 10 8 8 8 7 8 7 6 5 4 4 3 2 2 3 4 4 4 3 4 4 3 4 3 3 3 3 3 3 3 3 3 2 2 2
14 14 13 13 12 13 12 11 11 9 8 8 8 8 8 7 7 6 5 5 3 2 4 3 3 3 3 3 3 3 3 3 3 4 3 3 3 3 3 3 2 2 1
13 14 15 15 14 14 13 12 11 10 9 9 8 7 7 5 5 5 4 5 4 4 4 4 4 3 3 3 3 3 3 3 3 4 3 2 3 3 4 4 3 2 1
13 14 14 14 14 14 13 13 13 11 10 10 8 7 7 6 5 5 4 4 4 4 4 4 4 3 3 3 3 2 3 2 3 3 2 2 2 3 3 4 4 4 3
12 12 13 13 13 12 11 12 12 12 10 10 9 8 7 7 6 5 5 4 4 3 4 4 4 3 3 3 2 2 2 2 2 2 2 2 2 1 2 3 3 3 4
14 13 11 11 12 11 11 11 11 10 10 10 8 8 7 7 6 6 6 5 4 4 4 4 4 3 3 2 2 2 2 2 1 1 1 1 1 1 1 2 2 2 3
11 10 11 10 10 10 10 11 11 11 10 9 8 8 7 7 6 6 6 6 5 5 5 4 4 3 3 3 3 3 2 2 1 1 1 1 1 1 1 1 2 2 2
8 8 9 10 10 10 11 11 11 11 10 9 9 8 7 7 7 6 5 5 5 5 5 4 4 3 3 4 4 3 3 2 2 2 2 2 1 1 1 1 1 1 2
9 9 8 8 10 10 11 11 11 10 10 10 10 9 9 8 7 6 6 6 6 5 5 4 3 3 3 3 3 3 3 2 2 2 2 2 2 2 2 2 2 2 3
10 11 10 9 8 9 9 10 10 10 10 10 10 10 9 8 7 6 6 5 5 5 5 4 3 3 3 3 3 3 3 3 2 1 1 2 2 3 3 3 3 4 3
9 9 8 8 8 8 8 9 10 10 10 11 10 9 8 8 7 7 6 5 5 5 5 4 4 3 2 3 4 4 3 3 3 2 1 1 2 2 4 4 4 5 5
7 7 6 6 6 6 7 8 8 9 10 10 9 9 9 8 8 7 6 6 5 4 4 4 4 4 3 4 4 5 4 3 3 3 2 1 1 2 3 3 4 3 3
5 5 5 4 4 3 4 5 5 7 9 9 9 9 9 9 8 7 7 6 4 5 4 4 4 4 3 3 3 4 3 3 2 2 3 3 2 2 3 3 3 2 1
4 4 5 6 5 4 3 4 4 5 6 7 8 9 9 9 9 8 7 5 5 4 4 4 5 4 2 3 3 4 3 2 2 1 2 3 3 3 5 4 3 2 0
4 3 4 5 5 4 4 5 4 5 6 6 6 7 8 9 9 8 7 5 5 5 5 5 4 5 4 3 4 5 3 3 2 1 1 1 3 3 5 4 4 3 2
5 5 5 4 3 2 4 5 4 4 5 5 5 5 6 7 8 6 5 5 5 5 5 5 4 4 4 4 5 6 4 4 3 2 1 1 3 4 4 4 3 4 3
5 5 5 4 3 3 4 3 2 2 3 4 4 5 5 6 6 7 6 6 6 6 5 4 3 2 2 3 5 7 6 6 4 3 2 2 3 3 3 3 4 5 4
4 4 5 4 3 3 4 4 1 1 3 3 3 3 4 5 6 7 7 6 6 5 5 5 4 3 2 2 4 6 7 7 4 3 5 4 4 3 2 3 4 4 3
3 4 5 4 3 2 3 3 1 1 3 3 2 3 3 3 4 4 5 5 6 6 5 6 5 4 3 3 3 3 3 4 4 3 3 3 2 2 1 1 1 2 3
3 4 4 3 2 2 2 2 1 2 3 3 2 2 3 4 4 4 3 4 4 6 6 5 5 6 5 6 8 6 5 5 5 4 2 1 1 1 0 1 1 1 1
3 3 3 3 2 3 3 3 1 3 3 2 2 2 2 3 4 5 2 2 1 2 4 6 5 4 5 7 8 8 7 7 8 5 2 2 2 3 2 2 2 1 2
Wind_Direction
179 171 170 167 162 163 160 161 162 168 158 147 150 154 174 176 180 193 194 187 190 183 171 181 180 174 181 198 192 176 184 202 163 101 2 345 319 262 224 196 185 194 199
169 171 170 169 170 171 169 167 171 171 170 171 168 164 165 182 188 196 195 193 188 184 182 179 185 186 187 197 195 176 172 209 166 148 121 338 341 342 267 212 196 196 194
176 175 173 175 173 176 176 176 175 173 173 167 151 133 114 103 130 186 208 206 191 191 188 183 184 188 183 192 201 186 179 200 216 173 161 174 227 281 319 314 213 190 191
175 174 174 176 180 181 176 170 171 172 174 168 166 167 175 188 204 193 197 209 198 193 192 186 185 189 188 195 208 197 187 178 207 220 206 190 173 179 265 320 317 247 222
178 178 180 181 180 176 172 171 168 172 173 173 173 173 183 190 190 184 189 203 204 194 188 184 181 185 194 199 202 196 193 187 194 202 202 199 186 174 178 243 273 305 267
177 179 179 172 170 169 170 169 170 175 174 173 173 175 181 183 178 190 191 199 201 210 202 186 180 187 197 203 202 198 195 196 200 207 196 184 189 193 183 211 234 246 267
174 173 171 170 172 172 173 172 172 177 178 176 179 183 186 187 191 196 195 192 192 206 217 205 191 193 203 202 195 192 203 199 203 211 213 206 213 189 180 187 218 227 249
173 178 178 174 174 175 174 173 174 177 178 180 184 186 187 190 199 198 191 193 200 208 205 199 197 197 195 196 190 197 213 209 210 218 212 212 221 197 184 179 179 203 245
175 181 181 176 175 175 177 176 177 180 183 183 181 185 186 187 192 193 190 195 204 209 197 191 196 192 185 195 192 196 209 198 206 215 215 221 228 209 199 184 177 176 200
171 178 179 177 176 176 176 176 178 182 184 183 184 187 187 187 184 178 183 194 202 211 190 190 190 194 195 195 184 188 191 184 214 207 201 219 225 216 193 189 187 184 179
175 178 175 172 170 172 173 175 179 180 182 183 184 183 186 186 183 187 188 191 195 197 193 188 187 189 189 183 167 175 158 172 215 222 186 235 225 197 193 170 168 173 163
174 171 167 165 166 170 173 176 182 184 187 184 183 186 185 183 185 191 195 189 188 190 190 184 184 190 174 160 155 166 154 163 195 227 186 238 219 188 165 162 172 171 162
164 160 160 168 173 176 176 179 185 187 185 180 182 184 183 184 190 192 190 185 184 186 184 177 178 181 171 159 160 163 164 180 193 191 185 199 159 189 197 159 155 151 144
167 165 169 177 179 182 179 179 187 186 181 179 181 184 187 187 187 184 182 181 179 178 180 173 167 166 156 151 157 159 165 171 174 173 170 174 174 190 184 156 143 136 125
172 172 176 184 187 182 178 178 181 181 179 179 185 190 187 182 178 178 178 173 169 171 168 159 156 153 149 159 163 173 175 174 168 153 160 169 156 157 158 158 152 143 141
163 165 170 174 182 184 183 180 180 181 177 181 189 185 177 176 176 174 169 165 164 163 157 162 161 161 173 166 160 162 171 177 164 149 133 127 105 121 125 128 136 148 157
153 149 155 166 180 185 177 185 184 176 176 182 184 181 177 176 175 173 165 168 168 160 158 164 161 168 180 172 164 164 168 168 166 161 163 154 126 125 124 120 115 118 144
145 146 147 147 154 163 167 173 173 170 174 177 179 180 178 177 171 166 169 173 168 164 165 170 169 165 178 174 163 154 153 147 149 156 168 164 160 152 143 130 113 105 104
133 151 147 135 129 144 163 148 153 161 168 179 183 182 178 173 170 173 177 175 164 162 158 159 156 151 160 169 165 150 138 132 120 110 131 157 170 173 149 142 140 130 94
99 115 123 115 125 144 143 139 157 164 177 186 187 181 176 171 170 174 173 167 161 162 158 155 157 157 164 170 164 154 134 137 135 91 88 150 172 168 153 152 156 164 194
93 95 105 110 141 152 130 137 158 183 186 175 171 166 168 169 165 163 164 161 159 156 158 157 157 162 170 175 171 166 158 164 164 170 189 217 177 157 154 156 168 182 167
85 93 93 75 71 98 109 124 154 184 152 146 154 159 162 167 163 160 164 161 160 161 166 163 168 186 189 186 183 175 176 171 168 188 197 200 182 164 153 158 169 157 140
79 86 98 87 69 87 114 121 123 123 124 127 150 158 162 164 163 164 164 161 163 170 179 178 188 198 193 206 198 182 182 181 172 179 176 175 168 158 162 177 166 154 146
84 78 80 82 74 73 96 127 167 141 128 142 152 148 146 149 149 153 161 167 174 179 184 192 195 191 189 201 201 188 172 162 159 150 156 156 147 122 132 154 171 171 179
100 100 101 102 93 73 73 76 104 129 124 123 126 143 159 159 157 154 163 178 192 196 189 196 195 190 200 211 195 180 178 178 171 142 117 112 123 143 171 229 244 224 183
128 118 107 102 89 77 66 50 65 120 121 122 139 158 175 175 167 157 135 64 166 176 187 192 190 196 192 181 176 177 174 166 153 139 155 179 188 195 203 208 226 231 225
Height
1526 1529 1531 1533 1536 1537 1539 1541 1542 1544 1546 1547 1548 1549 1550 1551 1552 1553 1553 1554 1555 1555 1556 1557 1558 1559 1559 1560 1561 1561 1562 1562 1563 1563 1563 1563 1563 1563 1563 1563 1563 1563 1564
1525 1527 1530 1532 1534 1536 1537 1539 1541 1542 1544 1545 1547 1548 1549 1550 1551 1552 1552 1553 1553 1554 1555 1556 1556 1557 1558 1558 1559 1559 1560 1560 1561 1561 1561 1561 1562 1561 1561 1561 1561 1561 1561
1521 1524 1527 1529 1532 1534 1535 1537 1539 1541 1542 1544 1546 1547 1548 1549 1550 1550 1551 1552 1552 1553 1554 1554 1555 1555 1556 1556 1557 1557 1558 1558 1559 1559 1560 1559 1558 1559 1559 1558 1559 1559 1559
1519 1522 1524 1527 1529 1531 1534 1536 1537 1539 1541 1542 1544 1545 1546 1547 1548 1549 1549 1550 1551 1551 1552 1552 1553 1553 1554 1554 1555 1555 1555 1556 1556 1557 1557 1558 1557 1557 1556 1556 1556 1557 1557
1516 1519 1521 1524 1527 1530 1532 1534 1536 1537 1539 1540 1542 1543 1544 1545 1546 1547 1548 1548 1549 1549 1550 1550 1551 1551 1552 1552 1552 1553 1553 1553 1553 1554 1554 1554 1554 1554 1554 1553 1553 1554 1554
1514 1517 1519 1522 1525 1528 1530 1532 1534 1535 1537 1538 1539 1541 1542 1543 1544 1545 1546 1546 1547 1547 1548 1548 1548 1549 1549 1550 1550 1550 1550 1550 1550 1551 1551 1551 1551 1551 1551 1551 1550 1550 1551
1511 1514 1518 1520 1523 1525 1527 1530 1532 1533 1535 1536 1537 1539 1540 1541 1542 1543 1544 1544 1545 1545 1546 1546 1546 1547 1547 1547 1547 1547 1547 1547 1547 1548 1548 1548 1548 1548 1548 1548 1547 1547 1547
1509 1512 1514 1517 1520 1523 1525 1527 1529 1531 1532 1534 1535 1537 1538 1539 1540 1541 1542 1542 1543 1544 1544 1544 1544 1544 1545 1545 1545 1544 1544 1544 1544 1545 1545 1545 1545 1545 1545 1545 1545 1544 1544
1506 1510 1513 1515 1518 1520 1523 1525 1527 1529 1530 1532 1533 1535 1536 1537 1538 1539 1540 1540 1541 1541 1542 1542 1542 1542 1542 1542 1542 1542 1542 1542 1542 1541 1541 1542 1542 1542 1542 1542 1542 1543 1541
1505 1508 1511 1513 1516 1519 1521 1523 1525 1527 1528 1530 1531 1532 1533 1535 1536 1537 1537 1538 1539 1539 1540 1540 1540 1540 1540 1540 1539 1539 1539 1539 1539 1539 1539 1539 1538 1539 1539 1539 1539 1539 1539
1501 1505 1508 1511 1514 1517 1519 1521 1523 1525 1526 1527 1529 1530 1531 1533 1534 1535 1535 1536 1537 1537 1537 1537 1537 1537 1537 1537 1537 1537 1536 1536 1536 1536 1536 1535 1535 1535 1535 1536 1536 1536 1536
1500 1503 1507 1509 1512 1514 1516 1519 1521 1523 1524 1525 1527 1528 1529 1531 1532 1533 1534 1534 1535 1535 1535 1535 1535 1535 1535 1535 1535 1534 1534 1534 1534 1533 1533 1533 1532 1532 1532 1532 1532 1533 1533
1500 1503 1505 1508 1510 1512 1514 1516 1517 1520 1522 1523 1525 1526 1527 1528 1530 1531 1531 1532 1532 1533 1533 1533 1533 1532 1532 1532 1532 1532 1532 1531 1531 1531 1531 1530 1530 1529 1529 1529 1529 1530 1530
1499 1501 1503 1505 1507 1510 1511 1513 1516 1518 1519 1521 1522 1523 1524 1526 1527 1528 1529 1529 1530 1530 1530 1531 1530 1530 1530 1530 1530 1530 1529 1529 1529 1529 1528 1528 1527 1527 1527 1526 1527 1527 1528
1497 1498 1501 1503 1505 1507 1508 1510 1512 1515 1517 1518 1519 1520 1522 1523 1525 1526 1527 1527 1527 1527 1528 1528 1528 1528 1528 1527 1527 1527 1527 1527 1526 1526 1526 1526 1525 1525 1525 1524 1524 1525 1525
1494 1496 1498 1500 1503 1504 1506 1508 1509 1512 1514 1516 1517 1518 1519 1521 1522 1523 1524 1525 1525 1525 1525 1526 1526 1526 1526 1525 1525 1525 1525 1524 1524 1524 1524 1524 1524 1523 1523 1523 1523 1523 1523
1493 1494 1496 1498 1500 1503 1503 1505 1506 1508 1510 1512 1514 1515 1516 1518 1519 1521 1522 1523 1523 1523 1523 1524 1524 1524 1524 1524 1524 1523 1523 1523 1522 1522 1523 1523 1523 1523 1522 1522 1522 1521 1521
1491 1492 1494 1496 1498 1500 1502 1503 1504 1506 1507 1508 1510 1512 1513 1515 1516 1517 1518 1519 1520 1520 1521 1521 1522 1522 1522 1522 1522 1521 1521 1521 1521 1521 1521 1522 1522 1521 1521 1521 1520 1520 1520
1491 1492 1492 1493 1495 1498 1500 1501 1501 1503 1504 1505 1506 1508 1509 1510 1512 1513 1515 1515 1516 1517 1518 1518 1519 1519 1520 1520 1520 1520 1519 1520 1519 1519 1519 1520 1520 1520 1519 1519 1519 1518 1518
1489 1491 1492 1493 1494 1496 1498 1499 1500 1501 1501 1502 1503 1505 1506 1506 1507 1509 1511 1512 1513 1514 1515 1515 1516 1517 1517 1518 1517 1518 1518 1517 1517 1518 1518 1518 1518 1518 1517 1517 1517 1516 1516
1487 1489 1490 1491 1493 1495 1496 1497 1497 1498 1499 1500 1501 1502 1503 1504 1505 1507 1508 1508 1510 1511 1512 1512 1513 1514 1514 1515 1515 1515 1515 1515 1515 1515 1515 1516 1516 1516 1515 1515 1515 1515 1515
1488 1488 1490 1490 1492 1494 1494 1493 1494 1495 1497 1498 1499 1500 1501 1502 1503 1504 1505 1506 1507 1508 1509 1509 1510 1511 1512 1512 1512 1512 1513 1513 1513 1513 1514 1514 1514 1513 1513 1513 1513 1513 1513
1488 1488 1488 1490 1492 1493 1493 1493 1493 1492 1493 1495 1495 1497 1498 1499 1500 1501 1502 1503 1504 1505 1505 1506 1507 1507 1508 1509 1509 1510 1510 1510 1510 1511 1511 1511 1511 1511 1511 1511 1511 1511 1511
1487 1488 1488 1489 1490 1490 1491 1491 1490 1490 1491 1492 1493 1494 1495 1496 1497 1498 1499 1500 1500 1501 1501 1502 1502 1503 1505 1506 1506 1506 1507 1507 1507 1508 1508 1509 1509 1509 1509 1509 1508 1508 1508
1485 1487 1488 1488 1488 1488 1489 1489 1489 1489 1490 1490 1490 1491 1492 1493 1494 1495 1495 1496 1497 1498 1498 1498 1499 1500 1500 1502 1503 1503 1504 1504 1505 1505 1506 1506 1506 1506 1506 1506 1506 1506 1505
1484 1485 1486 1486 1486 1486 1486 1486 1486 1486 1487 1487 1488 1488 1489 1489 1490 1491 1492 1494 1494 1495 1495 1495 1496 1497 1498 1499 1499 1501 1501 1502 1503 1503 1503 1503 1503 1503 1503 1503 1503 1503 1503